Location: Cactus School
(34.5700°N, 118.0931°W)
Time: 08:38:00
(UTC-07:00)

S-56A Canister/Altair - Pass Details

Date: 19 April 2024
Orbit: 638 x 2488 km, 38.9° (Epoch: 29 May)

Event Time Altitude Azimuth Distance (km) Brightness Sun altitude
Rises 22:21:24 0° 290° (WNW) 4,086 12.1 -31.7°
Reaches altitude 10° 22:23:48 10° 289° (WNW) 3,326 11.5 -32.0°
Maximum altitude 22:32:30 79° 204° (SSW) 1,765 9.1 -33.2°
Enters shadow 22:34:15 67° 142° (SE) 1,940 9.1 -33.5°
Drops below altitude 10° 22:45:33 10° 121° (ESE) 4,814 - -35.0°
Sets 22:49:45 0° 120° (ESE) 5,981 - -35.5°
